Time,TemperatureF,DewpointF,PressureIn,WindDirection,WindDirectionDegrees,WindSpeedMPH,WindSpeedGustMPH,Humidity,HourlyPrecipIn,Conditions,Clouds,dailyrainin,SoftwareType,DateUTC
2013-01-04 00:05:00,33.1,18.2,30.18,NW,325,7.0,7.0,54,0.00,,,0.00,Wunderground v.1.15,2013-01-04 05:05:00,
2013-01-04 00:10:00,33.3,18.4,30.18,WSW,251,7.0,7.0,54,0.00,,,0.00,Wunderground v.1.15,2013-01-04 05:10:00,
2013-01-04 00:15:00,33.1,18.2,30.18,WNW,296,5.0,7.0,54,0.00,,,0.00,Wunderground v.1.15,2013-01-04 05:15:00,
2013-01-04 00:20:00,33.1,18.2,30.17,West,269,5.0,5.0,54,0.00,,,0.00,Wunderground v.1.15,2013-01-04 05:20:00,
2013-01-04 00:25:00,33.1,18.7,30.17,West,267,5.0,5.0,55,0.00,,,0.00,Wunderground v.1.15,2013-01-04 05:25:00,
2013-01-04 00:35:00,33.1,18.7,30.17,West,267,6.0,6.0,55,0.00,,,0.00,Wunderground v.1.15,2013-01-04 05:35:00,
2013-01-04 00:45:00,33.1,18.7,30.17,West,260,6.0,11.0,55,0.00,,,0.00,Wunderground v.1.15,2013-01-04 05:45:00,
2013-01-04 00:55:00,33.1,18.7,30.17,WNW,302,6.0,6.0,55,0.00,,,0.00,Wunderground v.1.15,2013-01-04 05:55:00,
2013-01-04 01:01:00,33.0,18.6,30.16,WNW,303,4.0,4.0,55,0.00,,,0.00,Wunderground v.1.15,2013-01-04 06:01:00,
2013-01-04 01:10:00,33.1,18.7,30.17,WSW,257,4.0,5.0,55,0.00,,,0.00,Wunderground v.1.15,2013-01-04 06:10:00,
2013-01-04 01:20:00,32.7,19.1,30.17,WSW,257,1.0,3.0,57,0.00,,,0.00,Wunderground v.1.15,2013-01-04 06:20:00,
2013-01-04 01:25:00,32.7,19.1,30.17,WSW,257,1.0,2.0,57,0.00,,,0.00,Wunderground v.1.15,2013-01-04 06:25:00,
2013-01-04 01:30:00,32.5,18.9,30.17,NW,311,2.0,2.0,57,0.00,,,0.00,Wunderground v.1.15,2013-01-04 06:30:00,
2013-01-04 01:40:00,32.5,18.9,30.17,West,261,5.0,5.0,57,0.00,,,0.00,Wunderground v.1.15,2013-01-04 06:40:00,
2013-01-04 01:50:00,32.5,18.5,30.17,West,273,4.0,7.0,56,0.00,,,0.00,Wunderground v.1.15,2013-01-04 06:50:00,
2013-01-04 02:01:00,32.7,18.7,30.18,WNW,286,9.0,9.0,56,0.00,,,0.00,Wunderground v.1.15,2013-01-04 07:01:00,
2013-01-04 02:10:00,32.5,18.5,30.18,WNW,296,8.0,10.0,56,0.00,,,0.00,Wunderground v.1.15,2013-01-04 07:10:00,
2013-01-04 02:16:00,32.5,18.5,30.18,NW,307,9.0,13.0,56,0.00,,,0.00,Wunderground v.1.15,2013-01-04 07:16:00,
2013-01-04 02:25:00,32.4,18.8,30.18,West,265,9.0,9.0,57,0.00,,,0.00,Wunderground v.1.15,2013-01-04 07:25:00,
2013-01-04 02:31:00,32.4,18.8,30.19,WNW,295,9.0,9.0,57,0.00,,,0.00,Wunderground v.1.15,2013-01-04 07:31:00,
2013-01-04 02:40:00,32.2,18.2,30.19,WSW,239,8.0,9.0,56,0.00,,,0.00,Wunderground v.1.15,2013-01-04 07:40:00,
2013-01-04 02:50:00,31.9,18.4,30.19,West,279,8.0,9.0,57,0.00,,,0.00,Wunderground v.1.15,2013-01-04 07:50:00,
2013-01-04 03:00:00,31.7,18.6,30.19,WNW,298,9.0,9.0,58,0.00,,,0.00,Wunderground v.1.15,2013-01-04 08:00:00,
2013-01-04 03:05:00,31.7,18.6,30.19,WSW,244,11.0,11.0,58,0.00,,,0.00,Wunderground v.1.15,2013-01-04 08:05:00,
2013-01-04 03:15:00,31.5,18.4,30.20,West,269,9.0,11.0,58,0.00,,,0.00,Wunderground v.1.15,2013-01-04 08:15:00,
2013-01-04 03:20:00,31.5,18.4,30.20,WNW,292,9.0,12.0,58,0.00,,,0.00,Wunderground v.1.15,2013-01-04 08:20:00,
2013-01-04 03:31:00,31.4,18.3,30.20,West,279,10.0,13.0,58,0.00,,,0.00,Wunderground v.1.15,2013-01-04 08:31:00,
2013-01-04 03:46:00,31.2,18.5,30.20,WNW,282,7.0,7.0,59,0.00,,,0.00,Wunderground v.1.15,2013-01-04 08:46:00,
2013-01-04 03:55:00,31.1,18.8,30.19,SW,232,8.0,10.0,60,0.00,,,0.00,Wunderground v.1.15,2013-01-04 08:55:00,
2013-01-04 04:05:00,30.9,19.0,30.19,WNW,300,5.0,7.0,61,0.00,,,0.00,Wunderground v.1.15,2013-01-04 09:05:00,
2013-01-04 04:15:00,30.9,19.0,30.20,West,279,8.0,12.0,61,0.00,,,0.00,Wunderground v.1.15,2013-01-04 09:15:00,
2013-01-04 04:25:00,30.9,19.0,30.19,West,277,8.0,9.0,61,0.00,,,0.00,Wunderground v.1.15,2013-01-04 09:25:00,
2013-01-04 04:30:00,30.8,18.9,30.20,WSW,248,8.0,8.0,61,0.00,,,0.00,Wunderground v.1.15,2013-01-04 09:30:00,
2013-01-04 04:40:00,30.8,18.5,30.20,SW,232,8.0,11.0,60,0.00,,,0.00,Wunderground v.1.15,2013-01-04 09:40:00,
2013-01-04 04:45:00,30.8,18.9,30.20,NW,306,9.0,11.0,61,0.00,,,0.00,Wunderground v.1.15,2013-01-04 09:45:00,
2013-01-04 04:50:00,30.8,18.5,30.20,WNW,294,8.0,8.0,60,0.00,,,0.00,Wunderground v.1.15,2013-01-04 09:50:00,
2013-01-04 05:00:00,30.8,18.9,30.20,WSW,251,7.0,7.0,61,0.00,,,0.00,Wunderground v.1.15,2013-01-04 10:00:00,
2013-01-04 05:10:00,30.8,18.5,30.20,WNW,300,9.0,9.0,60,0.00,,,0.00,Wunderground v.1.15,2013-01-04 10:10:00,
2013-01-04 05:20:00,30.8,18.5,30.20,NW,314,8.0,8.0,60,0.00,,,0.00,Wunderground v.1.15,2013-01-04 10:20:00,
2013-01-04 05:30:00,30.8,18.5,30.20,WSW,256,9.0,13.0,60,0.00,,,0.00,Wunderground v.1.15,2013-01-04 10:30:00,
2013-01-04 05:35:00,30.8,18.5,30.20,West,271,8.0,13.0,60,0.00,,,0.00,Wunderground v.1.15,2013-01-04 10:35:00,
2013-01-04 05:40:00,30.8,18.5,30.20,West,269,8.0,13.0,60,0.00,,,0.00,Wunderground v.1.15,2013-01-04 10:40:00,
2013-01-04 05:50:00,30.6,18.7,30.20,West,261,6.0,6.0,61,0.00,,,0.00,Wunderground v.1.15,2013-01-04 10:50:00,
2013-01-04 05:55:00,30.8,18.5,30.20,West,281,7.0,7.0,60,0.00,,,0.00,Wunderground v.1.15,2013-01-04 10:55:00,
2013-01-04 06:05:00,30.9,18.6,30.20,WSW,250,9.0,9.0,60,0.00,,,0.00,Wunderground v.1.15,2013-01-04 11:05:00,
2013-01-04 06:15:00,30.9,18.6,30.20,West,263,8.0,9.0,60,0.00,,,0.00,Wunderground v.1.15,2013-01-04 11:15:00,
2013-01-04 06:25:00,30.8,18.9,30.20,WSW,248,6.0,8.0,61,0.00,,,0.00,Wunderground v.1.15,2013-01-04 11:25:00,
2013-01-04 06:35:00,30.8,18.5,30.19,WSW,256,7.0,7.0,60,0.00,,,0.00,Wunderground v.1.15,2013-01-04 11:35:00,
2013-01-04 06:45:00,30.9,19.0,30.19,West,267,8.0,9.0,61,0.00,,,0.00,Wunderground v.1.15,2013-01-04 11:45:00,
2013-01-04 06:50:00,30.9,19.0,30.19,NW,306,9.0,9.0,61,0.00,,,0.00,Wunderground v.1.15,2013-01-04 11:50:00,
2013-01-04 06:55:00,30.8,19.3,30.19,WNW,282,7.0,9.0,62,0.00,,,0.00,Wunderground v.1.15,2013-01-04 11:55:00,
2013-01-04 07:05:00,30.8,19.3,30.19,SW,233,8.0,8.0,62,0.00,,,0.00,Wunderground v.1.15,2013-01-04 12:05:00,
2013-01-04 07:15:00,30.8,19.3,30.19,WSW,257,7.0,11.0,62,0.00,,,0.00,Wunderground v.1.15,2013-01-04 12:15:00,
2013-01-04 07:20:00,30.8,19.3,30.19,NW,307,6.0,6.0,62,0.00,,,0.00,Wunderground v.1.15,2013-01-04 12:20:00,
2013-01-04 07:26:00,30.8,19.3,30.19,WSW,245,7.0,7.0,62,0.00,,,0.00,Wunderground v.1.15,2013-01-04 12:26:00,
2013-01-04 07:35:00,30.8,19.3,30.19,West,264,5.0,10.0,62,0.00,,,0.00,Wunderground v.1.15,2013-01-04 12:35:00,
2013-01-04 07:40:00,30.9,19.4,30.18,WNW,294,6.0,11.0,62,0.00,,,0.00,Wunderground v.1.15,2013-01-04 12:40:00,
2013-01-04 07:46:00,30.9,19.4,30.18,SW,236,7.0,11.0,62,0.00,,,0.00,Wunderground v.1.15,2013-01-04 12:46:00,
2013-01-04 07:55:00,30.9,19.4,30.19,WSW,254,6.0,7.0,62,0.00,,,0.00,Wunderground v.1.15,2013-01-04 12:55:00,
2013-01-04 08:05:00,31.1,19.6,30.19,West,269,8.0,10.0,62,0.00,,,0.00,Wunderground v.1.15,2013-01-04 13:05:00,
2013-01-04 08:15:00,31.1,19.6,30.18,WSW,252,9.0,9.0,62,0.00,,,0.00,Wunderground v.1.15,2013-01-04 13:15:00,
2013-01-04 08:25:00,31.2,19.7,30.18,WSW,254,10.0,20.0,62,0.00,,,0.00,Wunderground v.1.15,2013-01-04 13:25:00,
2013-01-04 08:35:00,31.4,19.9,30.18,WSW,238,10.0,10.0,62,0.00,,,0.00,Wunderground v.1.15,2013-01-04 13:35:00,
2013-01-04 08:46:00,31.5,20.0,30.18,WNW,286,9.0,11.0,62,0.00,,,0.00,Wunderground v.1.15,2013-01-04 13:46:00,
2013-01-04 08:55:00,31.5,20.0,30.18,WSW,253,11.0,11.0,62,0.00,,,0.00,Wunderground v.1.15,2013-01-04 13:55:00,
2013-01-04 09:05:00,31.7,20.2,30.19,SW,234,7.0,9.0,62,0.00,,,0.00,Wunderground v.1.15,2013-01-04 14:05:00,
2013-01-04 09:15:00,31.8,20.3,30.18,West,262,7.0,7.0,62,0.00,,,0.00,Wunderground v.1.15,2013-01-04 14:15:00,
2013-01-04 09:25:00,31.9,20.3,30.19,WNW,293,7.0,7.0,62,0.00,,,0.00,Wunderground v.1.15,2013-01-04 14:25:00,
2013-01-04 09:30:00,32.1,20.5,30.19,WSW,257,6.0,6.0,62,0.00,,,0.00,Wunderground v.1.15,2013-01-04 14:30:00,
2013-01-04 09:40:00,32.2,20.2,30.19,West,271,8.0,8.0,61,0.00,,,0.00,Wunderground v.1.15,2013-01-04 14:40:00,
2013-01-04 09:45:00,32.4,20.0,30.19,WSW,240,8.0,8.0,60,0.00,,,0.00,Wunderground v.1.15,2013-01-04 14:45:00,
2013-01-04 09:50:00,32.4,20.4,30.19,West,281,8.0,9.0,61,0.00,,,0.00,Wunderground v.1.15,2013-01-04 14:50:00,
2013-01-04 10:01:00,32.5,20.1,30.20,West,274,8.0,8.0,60,0.00,,,0.00,Wunderground v.1.15,2013-01-04 15:01:00,
2013-01-04 10:10:00,32.7,20.3,30.20,West,281,7.0,7.0,60,0.00,,,0.00,Wunderground v.1.15,2013-01-04 15:10:00,
2013-01-04 10:20:00,33.0,20.2,30.20,WSW,244,8.0,8.0,59,0.00,,,0.00,Wunderground v.1.15,2013-01-04 15:20:00,
2013-01-04 10:31:00,33.1,20.3,30.21,WNW,300,7.0,9.0,59,0.00,,,0.00,Wunderground v.1.15,2013-01-04 15:31:00,
2013-01-04 10:40:00,33.1,20.3,30.20,WSW,245,9.0,9.0,59,0.00,,,0.00,Wunderground v.1.15,2013-01-04 15:40:00,
2013-01-04 10:45:00,33.3,20.5,30.20,SW,234,9.0,9.0,59,0.00,,,0.00,Wunderground v.1.15,2013-01-04 15:45:00,
2013-01-04 10:55:00,33.7,20.1,30.20,SW,236,9.0,12.0,57,0.00,,,0.00,Wunderground v.1.15,2013-01-04 15:55:00,
2013-01-04 11:00:00,33.7,20.5,30.20,WSW,250,9.0,9.0,58,0.00,,,0.00,Wunderground v.1.15,2013-01-04 16:00:00,
2013-01-04 11:05:00,33.9,20.3,30.20,West,279,9.0,9.0,57,0.00,,,0.00,Wunderground v.1.15,2013-01-04 16:05:00,
2013-01-04 11:16:00,34.0,19.9,30.19,West,269,9.0,11.0,56,0.00,,,0.00,Wunderground v.1.15,2013-01-04 16:16:00,
2013-01-04 11:25:00,34.2,20.1,30.19,WNW,283,9.0,12.0,56,0.00,,,0.00,Wunderground v.1.15,2013-01-04 16:25:00,
2013-01-04 11:35:00,34.3,20.2,30.18,West,265,8.0,8.0,56,0.00,,,0.00,Wunderground v.1.15,2013-01-04 16:35:00,
2013-01-04 11:45:00,34.5,20.4,30.18,WSW,257,11.0,16.0,56,0.00,,,0.00,Wunderground v.1.15,2013-01-04 16:45:00,
2013-01-04 11:55:00,34.8,20.3,30.17,West,273,10.0,11.0,55,0.00,,,0.00,Wunderground v.1.15,2013-01-04 16:55:00,
2013-01-04 12:05:00,34.9,19.9,30.16,WNW,288,11.0,11.0,54,0.00,,,0.00,Wunderground v.1.15,2013-01-04 17:05:00,
2013-01-04 12:15:00,35.6,20.1,30.15,West,261,11.0,13.0,53,0.00,,,0.00,Wunderground v.1.15,2013-01-04 17:15:00,
2013-01-04 12:25:00,35.9,20.4,30.14,WNW,301,13.0,19.0,53,0.00,,,0.00,Wunderground v.1.15,2013-01-04 17:25:00,
2013-01-04 12:35:00,36.6,20.6,30.14,NW,309,12.0,12.0,52,0.00,,,0.00,Wunderground v.1.15,2013-01-04 17:35:00,
2013-01-04 12:45:00,37.0,20.5,30.13,NW,305,11.0,11.0,51,0.00,,,0.00,Wunderground v.1.15,2013-01-04 17:45:00,
2013-01-04 12:50:00,37.3,20.8,30.13,WNW,302,10.0,10.0,51,0.00,,,0.00,Wunderground v.1.15,2013-01-04 17:50:00,
2013-01-04 12:55:00,37.5,20.5,30.13,NNE,13,9.0,10.0,50,0.00,,,0.00,Wunderground v.1.15,2013-01-04 17:55:00,
2013-01-04 13:05:00,37.5,20.5,30.12,WSW,248,11.0,15.0,50,0.00,,,0.00,Wunderground v.1.15,2013-01-04 18:05:00,
2013-01-04 13:10:00,38.1,20.6,30.12,SW,217,10.0,10.0,49,0.00,,,0.00,Wunderground v.1.15,2013-01-04 18:10:00,
2013-01-04 13:20:00,38.2,20.2,30.11,West,267,12.0,15.0,48,0.00,,,0.00,Wunderground v.1.15,2013-01-04 18:20:00,
2013-01-04 13:31:00,38.1,20.6,30.11,West,279,14.0,23.0,49,0.00,,,0.00,Wunderground v.1.15,2013-01-04 18:31:00,
2013-01-04 13:40:00,38.3,20.8,30.10,WSW,249,13.0,23.0,49,0.00,,,0.00,Wunderground v.1.15,2013-01-04 18:40:00,
2013-01-04 13:45:00,38.3,20.3,30.10,WSW,254,13.0,14.0,48,0.00,,,0.00,Wunderground v.1.15,2013-01-04 18:45:00,
2013-01-04 13:55:00,38.3,19.8,30.10,WSW,245,13.0,14.0,47,0.00,,,0.00,Wunderground v.1.15,2013-01-04 18:55:00,
2013-01-04 14:05:00,38.6,20.6,30.10,SW,234,13.0,14.0,48,0.00,,,0.00,Wunderground v.1.15,2013-01-04 19:05:00,
2013-01-04 14:15:00,38.8,21.3,30.10,WSW,252,13.0,15.0,49,0.00,,,0.00,Wunderground v.1.15,2013-01-04 19:15:00,
2013-01-04 14:20:00,38.9,20.4,30.10,WSW,244,12.0,12.0,47,0.00,,,0.00,Wunderground v.1.15,2013-01-04 19:20:00,
2013-01-04 14:30:00,38.9,20.4,30.10,West,269,11.0,11.0,47,0.00,,,0.00,Wunderground v.1.15,2013-01-04 19:30:00,
2013-01-04 14:35:00,39.1,20.5,30.10,West,277,10.0,13.0,47,0.00,,,0.00,Wunderground v.1.15,2013-01-04 19:35:00,
2013-01-04 14:45:00,39.3,20.7,30.10,West,269,9.0,10.0,47,0.00,,,0.00,Wunderground v.1.15,2013-01-04 19:45:00,
2013-01-04 14:55:00,38.8,19.8,30.11,SW,222,13.0,14.0,46,0.00,,,0.00,Wunderground v.1.15,2013-01-04 19:55:00,
2013-01-04 15:05:00,38.5,20.0,30.11,WSW,248,13.0,22.0,47,0.00,,,0.00,Wunderground v.1.15,2013-01-04 20:05:00,
2013-01-04 15:15:00,38.2,19.7,30.11,WSW,248,14.0,14.0,47,0.00,,,0.00,Wunderground v.1.15,2013-01-04 20:15:00,
2013-01-04 15:25:00,38.1,20.1,30.11,West,276,12.0,18.0,48,0.00,,,0.00,Wunderground v.1.15,2013-01-04 20:25:00,
2013-01-04 15:31:00,38.1,20.1,30.11,West,272,10.0,16.0,48,0.00,,,0.00,Wunderground v.1.15,2013-01-04 20:31:00,
2013-01-04 15:40:00,37.8,19.8,30.12,West,271,12.0,16.0,48,0.00,,,0.00,Wunderground v.1.15,2013-01-04 20:40:00,
2013-01-04 15:50:00,37.5,19.6,30.12,WSW,247,10.0,18.0,48,0.00,,,0.00,Wunderground v.1.15,2013-01-04 20:50:00,
2013-01-04 15:55:00,37.3,19.4,30.13,West,275,10.0,14.0,48,0.00,,,0.00,Wunderground v.1.15,2013-01-04 20:55:00,
2013-01-04 16:05:00,37.0,19.1,30.12,SW,219,13.0,13.0,48,0.00,,,0.00,Wunderground v.1.15,2013-01-04 21:05:00,
2013-01-04 16:15:00,36.8,19.4,30.12,West,261,11.0,11.0,49,0.00,,,0.00,Wunderground v.1.15,2013-01-04 21:15:00,
2013-01-04 16:20:00,36.6,19.2,30.12,West,274,11.0,11.0,49,0.00,,,0.00,Wunderground v.1.15,2013-01-04 21:20:00,
2013-01-04 16:25:00,36.5,19.1,30.12,SW,232,10.0,11.0,49,0.00,,,0.00,Wunderground v.1.15,2013-01-04 21:25:00,
2013-01-04 16:35:00,36.2,19.3,30.11,WSW,237,11.0,12.0,50,0.00,,,0.00,Wunderground v.1.15,2013-01-04 21:35:00,
2013-01-04 16:40:00,36.0,19.1,30.11,West,268,11.0,11.0,50,0.00,,,0.00,Wunderground v.1.15,2013-01-04 21:40:00,
2013-01-04 16:46:00,35.9,19.5,30.11,WSW,240,10.0,11.0,51,0.00,,,0.00,Wunderground v.1.15,2013-01-04 21:46:00,
2013-01-04 16:55:00,35.8,19.4,30.11,West,280,12.0,12.0,51,0.00,,,0.00,Wunderground v.1.15,2013-01-04 21:55:00,
2013-01-04 17:05:00,35.5,19.6,30.10,SW,232,10.0,12.0,52,0.00,,,0.00,Wunderground v.1.15,2013-01-04 22:05:00,
2013-01-04 17:16:00,35.2,19.3,30.10,WSW,253,11.0,12.0,52,0.00,,,0.00,Wunderground v.1.15,2013-01-04 22:16:00,
2013-01-04 17:25:00,34.9,19.0,30.11,West,260,10.0,10.0,52,0.00,,,0.00,Wunderground v.1.15,2013-01-04 22:25:00,
2013-01-04 17:31:00,34.9,19.0,30.11,West,281,12.0,12.0,52,0.00,,,0.00,Wunderground v.1.15,2013-01-04 22:31:00,
2013-01-04 17:40:00,34.6,19.2,30.12,WSW,252,10.0,12.0,53,0.00,,,0.00,Wunderground v.1.15,2013-01-04 22:40:00,
2013-01-04 17:45:00,34.5,19.1,30.13,NW,307,9.0,11.0,53,0.00,,,0.00,Wunderground v.1.15,2013-01-04 22:45:00,
2013-01-04 17:50:00,34.3,18.9,30.13,WSW,244,9.0,11.0,53,0.00,,,0.00,Wunderground v.1.15,2013-01-04 22:50:00,
2013-01-04 18:01:00,34.0,19.1,30.13,WNW,290,9.0,9.0,54,0.00,,,0.00,Wunderground v.1.15,2013-01-04 23:01:00,
2013-01-04 18:11:00,33.9,19.0,30.14,West,277,10.0,14.0,54,0.00,,,0.00,Wunderground v.1.15,2013-01-04 23:11:00,
2013-01-04 18:20:00,33.7,18.8,30.13,West,269,11.0,13.0,54,0.00,,,0.00,Wunderground v.1.15,2013-01-04 23:20:00,
2013-01-04 18:25:00,33.7,18.8,30.14,West,262,12.0,13.0,54,0.00,,,0.00,Wunderground v.1.15,2013-01-04 23:25:00,
2013-01-04 18:35:00,33.7,18.8,30.14,WSW,257,11.0,11.0,54,0.00,,,0.00,Wunderground v.1.15,2013-01-04 23:35:00,
2013-01-04 18:45:00,33.4,18.5,30.14,West,269,10.0,10.0,54,0.00,,,0.00,Wunderground v.1.15,2013-01-04 23:45:00,
2013-01-04 18:55:00,33.4,18.5,30.14,West,267,11.0,18.0,54,0.00,,,0.00,Wunderground v.1.15,2013-01-04 23:55:00,
2013-01-04 19:05:00,33.4,18.5,30.14,West,262,12.0,12.0,54,0.00,,,0.00,Wunderground v.1.15,2013-01-05 00:05:00,
2013-01-04 19:10:00,33.1,18.7,30.15,West,269,9.0,9.0,55,0.00,,,0.00,Wunderground v.1.15,2013-01-05 00:10:00,
2013-01-04 19:20:00,32.8,18.8,30.15,WSW,257,9.0,10.0,56,0.00,,,0.00,Wunderground v.1.15,2013-01-05 00:20:00,
2013-01-04 19:30:00,32.8,18.8,30.15,WNW,290,11.0,11.0,56,0.00,,,0.00,Wunderground v.1.15,2013-01-05 00:30:00,
2013-01-04 19:46:00,32.8,18.8,30.15,West,268,13.0,14.0,56,0.00,,,0.00,Wunderground v.1.15,2013-01-05 00:46:00,
2013-01-04 19:55:00,32.5,18.9,30.15,West,273,9.0,14.0,57,0.00,,,0.00,Wunderground v.1.15,2013-01-05 00:55:00,
2013-01-04 20:01:00,32.4,18.8,30.15,WNW,302,9.0,9.0,57,0.00,,,0.00,Wunderground v.1.15,2013-01-05 01:01:00,
2013-01-04 20:10:00,32.4,18.8,30.15,WSW,240,11.0,11.0,57,0.00,,,0.00,Wunderground v.1.15,2013-01-05 01:10:00,
2013-01-04 20:20:00,32.4,18.8,30.15,WSW,241,10.0,13.0,57,0.00,,,0.00,Wunderground v.1.15,2013-01-05 01:20:00,
2013-01-04 20:25:00,32.2,19.1,30.15,West,273,10.0,14.0,58,0.00,,,0.00,Wunderground v.1.15,2013-01-05 01:25:00,
2013-01-04 20:35:00,32.1,19.0,30.15,WSW,252,10.0,12.0,58,0.00,,,0.00,Wunderground v.1.15,2013-01-05 01:35:00,
2013-01-04 20:45:00,32.2,19.1,30.15,West,265,11.0,11.0,58,0.00,,,0.00,Wunderground v.1.15,2013-01-05 01:45:00,
2013-01-04 20:55:00,32.4,18.8,30.15,WNW,295,11.0,11.0,57,0.00,,,0.00,Wunderground v.1.15,2013-01-05 01:55:00,
2013-01-04 21:01:00,32.2,19.1,30.15,WNW,288,12.0,12.0,58,0.00,,,0.00,Wunderground v.1.15,2013-01-05 02:01:00,
2013-01-04 21:10:00,32.1,19.0,30.15,SW,229,9.0,12.0,58,0.00,,,0.00,Wunderground v.1.15,2013-01-05 02:10:00,
2013-01-04 21:16:00,32.1,19.0,30.15,West,261,8.0,11.0,58,0.00,,,0.00,Wunderground v.1.15,2013-01-05 02:16:00,
2013-01-04 21:25:00,32.1,19.0,30.15,West,265,9.0,13.0,58,0.00,,,0.00,Wunderground v.1.15,2013-01-05 02:25:00,
2013-01-04 21:35:00,32.1,19.0,30.16,WSW,245,9.0,10.0,58,0.00,,,0.00,Wunderground v.1.15,2013-01-05 02:35:00,
2013-01-04 21:45:00,32.4,19.3,30.16,West,274,9.0,13.0,58,0.00,,,0.00,Wunderground v.1.15,2013-01-05 02:45:00,
2013-01-04 21:50:00,32.4,19.3,30.16,West,259,9.0,9.0,58,0.00,,,0.00,Wunderground v.1.15,2013-01-05 02:50:00,
2013-01-04 22:00:00,32.4,19.3,30.16,WSW,250,10.0,15.0,58,0.00,,,0.00,Wunderground v.1.15,2013-01-05 03:00:00,
2013-01-04 22:10:00,32.2,19.1,30.16,West,267,10.0,11.0,58,0.00,,,0.00,Wunderground v.1.15,2013-01-05 03:10:00,
2013-01-04 22:16:00,32.2,19.1,30.16,WSW,248,8.0,11.0,58,0.00,,,0.00,Wunderground v.1.15,2013-01-05 03:16:00,
2013-01-04 22:25:00,32.2,19.1,30.16,WSW,248,9.0,14.0,58,0.00,,,0.00,Wunderground v.1.15,2013-01-05 03:25:00,
2013-01-04 22:35:00,32.5,19.3,30.17,WSW,257,10.0,12.0,58,0.00,,,0.00,Wunderground v.1.15,2013-01-05 03:35:00,
2013-01-04 22:40:00,32.5,19.3,30.16,West,266,10.0,10.0,58,0.00,,,0.00,Wunderground v.1.15,2013-01-05 03:40:00,
2013-01-04 22:45:00,32.5,19.3,30.16,West,259,9.0,10.0,58,0.00,,,0.00,Wunderground v.1.15,2013-01-05 03:45:00,
2013-01-04 22:55:00,32.5,19.3,30.17,West,265,8.0,15.0,58,0.00,,,0.00,Wunderground v.1.15,2013-01-05 03:55:00,
2013-01-04 23:00:00,32.4,19.7,30.16,WSW,241,7.0,7.0,59,0.00,,,0.00,Wunderground v.1.15,2013-01-05 04:00:00,
2013-01-04 23:05:00,32.7,19.5,30.16,SW,230,7.0,7.0,58,0.00,,,0.00,Wunderground v.1.15,2013-01-05 04:05:00,
2013-01-04 23:15:00,32.7,19.5,30.16,West,264,7.0,12.0,58,0.00,,,0.00,Wunderground v.1.15,2013-01-05 04:15:00,
2013-01-04 23:20:00,32.7,19.5,30.16,WSW,252,6.0,6.0,58,0.00,,,0.00,Wunderground v.1.15,2013-01-05 04:20:00,
2013-01-04 23:30:00,32.8,19.2,30.16,West,267,6.0,6.0,57,0.00,,,0.00,Wunderground v.1.15,2013-01-05 04:30:00,
2013-01-04 23:40:00,32.5,19.3,30.16,SW,229,5.0,5.0,58,0.00,,,0.00,Wunderground v.1.15,2013-01-05 04:40:00,
2013-01-04 23:45:00,32.4,19.3,30.16,SW,225,5.0,5.0,58,0.00,,,0.00,Wunderground v.1.15,2013-01-05 04:45:00,
2013-01-04 23:55:00,32.4,19.3,30.16,WSW,247,6.0,9.0,58,0.00,,,0.00,Wunderground v.1.15,2013-01-05 04:55:00,